Total_Precipitation_Accumulation
4.27 4.26 4.23 4.40 4.01 4.05 4.43 4.49 4.12 4.19 4.23 3.93 3.52 3.39 3.41 3.28 3.31 3.23 3.37 3.54 3.36 3.47 3.89 3.89 3.79 3.57 3.36 2.97 2.70 2.57 2.45 2.31 2.03 1.66 1.51 1.45 1.40 1.33 1.33 1.36 1.27 1.16 1.09
4.22 4.37 4.36 4.40 3.95 3.77 3.95 4.08 3.97 4.16 4.10 3.95 3.50 3.26 3.24 3.43 3.46 3.31 3.38 3.69 3.58 3.27 3.44 3.71 3.91 3.93 3.77 3.55 3.19 2.91 2.74 2.59 2.20 1.70 1.45 1.41 1.39 1.34 1.45 1.53 1.38 1.22 1.13
4.27 4.48 4.46 4.30 4.13 4.05 4.05 3.98 3.99 4.29 3.99 3.80 3.60 3.49 3.44 3.48 3.33 3.29 3.32 3.58 3.23 3.05 3.07 3.20 3.54 3.83 4.11 4.21 3.91 3.59 3.21 2.80 2.33 1.89 1.59 1.43 1.33 1.31 1.42 1.50 1.49 1.34 1.14
3.95 4.39 4.23 3.96 4.15 4.24 4.32 4.25 4.14 4.26 4.28 4.30 4.17 3.97 3.72 3.59 2.97 2.91 2.99 3.09 3.24 2.80 2.92 3.16 3.27 3.41 3.96 4.54 4.79 4.66 4.03 3.34 2.74 2.22 1.90 1.67 1.59 1.55 1.49 1.48 1.53 1.46 1.28
3.18 3.42 3.44 3.49 3.52 3.72 3.65 3.40 3.76 3.96 4.18 4.34 4.09 3.91 3.50 3.34 3.06 2.92 2.97 2.67 2.84 2.87 2.93 3.00 3.24 3.27 3.77 4.71 5.60 5.84 5.32 4.45 3.62 2.87 2.51 2.32 2.15 1.94 1.80 1.69 1.64 1.59 1.44
2.80 3.01 2.86 2.95 3.13 3.40 3.44 3.49 3.73 3.66 3.58 3.75 3.39 3.44 3.31 3.07 3.01 2.95 2.74 2.67 2.67 2.62 2.74 2.98 3.25 2.92 3.48 4.37 5.24 5.74 5.88 5.45 4.61 3.85 3.42 3.10 2.94 2.58 2.07 1.82 1.71 1.64 1.53
2.80 3.11 2.83 3.17 3.18 3.26 3.23 3.15 3.30 3.28 3.03 3.15 3.68 3.67 3.23 2.97 2.98 2.84 2.69 2.79 2.61 2.57 2.77 3.05 3.30 3.33 3.03 3.08 3.64 4.32 5.20 5.79 5.42 4.67 4.18 3.81 3.58 3.08 2.43 2.13 1.87 1.72 1.65
2.68 2.76 2.94 2.79 2.85 3.06 2.96 2.90 3.23 3.23 2.89 2.97 3.53 3.81 3.64 3.65 3.36 2.65 2.61 2.73 2.70 2.73 2.77 2.81 3.14 3.40 3.22 3.45 2.90 3.03 4.08 5.07 5.63 5.56 4.98 4.24 3.67 3.13 2.68 2.49 2.20 1.95 1.84
2.34 2.50 2.58 2.71 2.83 2.73 2.86 2.93 3.01 3.16 3.09 2.93 3.01 3.61 3.63 3.49 3.36 3.02 2.63 2.52 2.71 2.96 2.89 2.89 2.86 2.99 3.06 3.44 3.37 3.03 3.31 3.58 4.68 5.66 5.52 4.58 3.59 2.93 2.67 2.74 2.68 2.29 2.04
2.18 2.12 2.26 2.52 2.66 2.61 2.87 2.60 2.76 3.04 3.16 2.92 2.92 3.01 3.03 3.15 3.33 3.16 2.77 2.43 2.43 2.56 2.69 2.63 2.74 2.90 3.01 3.27 3.42 3.04 2.68 2.64 3.29 4.36 4.95 4.83 4.05 3.17 2.78 2.93 3.28 3.15 2.64
2.13 2.03 2.12 2.34 2.49 2.55 2.66 2.68 2.99 2.93 2.85 2.83 2.85 2.96 3.07 3.04 2.88 2.92 2.94 2.65 2.46 2.27 2.35 2.51 2.69 2.92 2.93 3.06 3.32 3.05 2.80 2.62 2.47 2.74 3.37 3.88 3.99 3.68 3.33 3.40 3.98 4.37 4.18
2.22 2.29 2.27 2.35 2.32 2.35 2.44 2.56 2.81 2.81 2.76 2.82 2.72 2.63 2.89 3.04 3.01 3.06 2.90 2.64 2.46 2.21 2.16 2.26 2.53 2.82 2.93 2.90 2.60 2.55 2.57 2.59 2.41 2.27 2.36 2.66 3.06 3.32 3.50 3.83 4.37 4.97 5.29
1.92 2.19 2.36 2.45 2.45 2.43 2.36 2.47 2.56 2.57 2.63 2.78 2.70 2.57 2.58 2.61 2.83 3.04 3.05 2.66 2.46 2.23 2.37 2.35 2.29 2.36 2.42 2.55 2.60 2.55 2.28 2.30 2.12 2.01 2.03 2.15 2.37 2.64 2.90 3.16 3.63 4.18 4.63
1.61 1.83 2.10 2.22 2.23 2.18 2.19 2.63 2.42 2.38 2.55 2.63 2.55 2.87 2.72 2.50 2.70 2.91 3.04 3.09 2.89 2.74 2.78 2.56 2.27 2.20 2.30 2.39 2.49 2.41 2.01 2.07 1.93 1.83 1.69 1.64 1.70 1.79 1.95 2.18 2.46 2.74 3.04
1.65 1.72 1.77 2.06 2.18 2.14 2.20 2.44 2.38 2.34 2.49 2.48 2.62 2.88 2.82 2.66 2.66 2.70 2.92 3.22 3.44 3.27 3.00 2.67 2.34 2.10 2.14 2.26 2.31 1.97 1.88 2.15 1.97 1.76 1.63 1.56 1.55 1.55 1.58 1.63 1.67 1.75 1.81
1.71 1.76 1.84 1.85 1.95 2.10 2.23 2.39 2.26 2.20 2.35 2.42 2.57 2.72 2.72 2.62 2.67 2.61 2.74 3.03 3.32 3.37 3.02 2.56 2.38 2.21 2.16 1.93 2.09 1.84 1.77 1.96 1.82 1.74 1.69 1.60 1.50 1.50 1.52 1.49 1.43 1.41 1.43
1.65 1.66 1.71 1.78 1.79 1.92 2.19 2.50 2.40 2.39 2.44 2.44 2.45 2.61 2.70 2.86 2.91 2.80 2.80 2.83 3.00 3.20 2.96 2.57 2.44 2.36 2.17 1.98 1.91 1.77 1.65 1.62 1.59 1.68 1.60 1.54 1.44 1.35 1.39 1.39 1.37 1.32 1.26
1.59 1.50 1.56 1.64 1.58 1.71 1.98 2.29 2.45 2.58 2.71 2.65 2.67 2.85 2.87 2.89 2.85 2.76 2.79 2.78 2.81 3.07 2.98 2.68 2.60 2.55 2.35 2.09 1.99 1.91 1.63 1.51 1.56 1.84 1.74 1.56 1.51 1.51 1.41 1.30 1.23 1.20 1.22
1.69 1.67 1.70 1.68 1.79 1.91 1.95 2.11 2.29 2.38 2.50 2.57 2.70 2.75 2.72 2.85 2.76 2.74 2.62 2.59 2.63 2.80 3.05 2.85 2.73 2.75 2.63 2.36 2.22 2.03 1.83 1.82 1.52 1.65 1.72 1.63 1.56 1.54 1.45 1.33 1.27 1.24 1.16
1.75 1.79 1.79 1.83 1.95 2.03 1.99 2.06 2.21 2.30 2.36 2.42 2.55 2.65 2.72 2.73 2.76 2.90 2.75 2.72 2.87 2.99 3.09 3.02 2.88 2.95 2.96 2.76 2.55 2.28 2.09 1.94 1.72 1.47 1.60 1.60 1.58 1.54 1.47 1.38 1.30 1.25 1.22
1.80 1.91 1.97 1.96 1.97 1.89 1.80 2.06 2.19 2.18 2.37 2.42 2.41 2.39 2.48 2.72 2.77 2.81 2.59 2.73 2.94 2.95 2.91 2.92 2.87 3.01 3.06 2.97 2.69 2.37 2.19 2.12 1.96 1.74 1.65 1.46 1.45 1.48 1.50 1.53 1.51 1.42 1.31
2.02 2.15 2.19 2.21 2.13 1.87 2.07 2.11 2.13 2.24 2.36 2.37 2.37 2.31 2.23 2.25 2.33 2.45 2.45 2.47 2.61 2.74 2.83 2.85 2.82 2.88 2.93 2.91 2.83 2.62 2.42 2.29 2.14 2.08 2.14 1.96 1.73 1.72 1.60 1.48 1.58 1.52 1.40
2.22 2.26 2.23 2.25 2.21 2.22 2.21 1.96 1.89 1.89 1.99 2.02 2.01 2.02 1.82 1.73 2.06 2.12 2.29 2.26 2.15 2.19 2.28 2.50 2.61 2.59 2.75 2.86 2.97 2.74 2.62 2.46 2.23 2.22 2.36 2.23 2.03 1.87 1.63 1.57 1.74 1.55 1.47
2.55 2.48 2.39 2.41 2.46 2.42 2.42 2.09 1.97 1.84 1.83 1.80 1.78 1.75 1.79 1.79 1.84 2.02 2.11 2.07 1.98 1.93 1.98 1.98 2.07 2.30 2.53 2.81 2.96 2.90 2.90 2.70 2.40 2.26 2.35 2.30 2.05 1.94 1.73 1.68 1.76 1.62 1.47
3.01 2.90 2.84 2.87 2.86 2.92 2.92 2.54 2.37 2.09 1.98 1.87 1.88 1.94 1.97 1.82 1.88 1.93 1.96 1.92 1.86 1.89 1.94 1.97 1.94 2.09 2.30 2.48 2.77 2.82 2.75 2.66 2.38 2.25 2.29 2.28 2.09 2.10 1.98 1.79 1.67 1.70 1.43
3.40 3.39 3.40 3.41 3.34 3.32 3.30 2.87 2.68 2.39 2.30 2.22 2.23 2.10 2.01 1.81 1.75 1.70 1.71 1.75 1.66 1.65 1.83 1.92 1.90 1.94 2.06 2.24 2.51 2.52 2.48 2.56 2.37 2.20 2.06 2.19 2.17 2.23 2.20 1.89 1.65 1.55 1.47